Location: Cul de Sac
(18.0387°N, 63.0654°W)
Time: 17:56:50
(UTC+00:00)

S3M - Pass Details

Date: 29 October 2020
Orbit: 950 x 1003 km, 83.0° (Epoch: 23 November)

Event Time Altitude Azimuth Distance (km) Brightness Sun altitude
Rises 22:18:49 0° 181° (S) 3,611 7.1 -9.6°
Reaches altitude 10° 22:21:18 10° 180° (S) 2,665 6.4 -10.1°
Maximum altitude 22:27:23 81° 94° (E) 963 3.9 -11.6°
Drops below altitude 10° 22:33:30 10° 7° (N) 2,679 6.1 -13.0°
Sets 22:36:00 0° 6° (N) 3,630 6.8 -13.6°
